DELTA 1 DEB, 12580

Orbit data source: Space-Track

DELTA 1 DEB, 12580 is space debris in LEO originally from a launch on Thu, 29 Jul 1976 UTC launched from the Air Force Western Test Range (AFWTR). Debris objects in space refer to the collection of defunct objects orbiting the Earth. Examples of debris include non-operational satellites, rocket bodies, and fragments generated from explosions, collisions, or faulty payload assembly.

Loading next visibility...
Identifier
12580, 1976-077DY
Orbit
LEO
Country
Flag of USUS
Related business
Manufacturer
Unknown
Mission
Spacecraft
Bus & Motor
Unknown
Mass
Unknown
Launch date (UTC)
1976-07-29 (50 years ago)
Launch vehicle
Unknown
Launch site
Air Force Western Test Range (AFWTR)
Object type
Payload
Rocket body
Debris
Shape & HBR
Unknown shape, 1.1 m
Radar Cross Section
Small (<0.1 m²)

Expand to show TLE details & history
Last TLE update: 17 hours ago

TLE from 17 hours ago
0 DELTA 1 DEB
1 12580U 76077DY  26131.64851363  .00000163  00000-0  37657-2 0  9992
2 12580 102.4334 198.5799 0616950 238.0786 285.8970 11.28347395980856
Epoch: 2026-05-11T15:33Z
TLE epoch observation values (Epoch: 2026-05-11T15:33:51.577Z)
Latitude
22.40122°
Longitude
-79.12954°
Altitude
1,909.129 km
Speed
6.984 km/s
True Right ascension
01h 35m 04s
True Declination
22° 17' 50"
Sunlit
Object was in daylight at epoch
Visualization orbit readout
Latitude
Unknown
Longitude
Unknown
Altitude
Unknown
Speed
Unknown
Apparent Right ascension
Unknown
Apparent Declination
Unknown
Sunlit
N/A
Visualization observer readout
Local Sidereal Time
17:11:02
Azimuth
Unknown
Elevation
Unknown
Doppler factor
Unknown
Orbital elements
Apogee altitude
2,534.151 km
Perigee altitude
1,498.367 km
Semi-major axis
8,394.396 km
Eccentricity
0.0617
Inclination
102.4334°
RAAN
198.5799°
Arg. of periapsis
238.0786°
True anomaly
278.96803°
Mean anomaly
285.897°
Eccentric anomaly
282.4452°
Mean motion
2.82201 °/min
Orbital period
127.57 mins
BSTAR
0.0037657
Loading maneuver chart data...
Computing Atmospheric mass density...
Loading historical data...
Loading historical data...
Loading historical data...
Loading historical data...
Loading historical data...
Loading historical data...
Loading historical data...

Documentation

Showing up to 5 results
|